Year,Month,Day,Hour,Minute,Value (Times are PST for insolation in W/m^2)
2013,03,19,00,00,0.00
2013,03,19,00,01,0.00
2013,03,19,00,02,0.00
2013,03,19,00,03,0.00
2013,03,19,00,04,0.00
2013,03,19,00,05,0.00
2013,03,19,00,06,0.00
2013,03,19,00,07,0.00
2013,03,19,00,08,0.00
2013,03,19,00,09,0.00
2013,03,19,00,10,0.00
2013,03,19,00,11,0.00
2013,03,19,00,12,0.00
2013,03,19,00,13,0.00
2013,03,19,00,14,0.00
2013,03,19,00,15,0.00
2013,03,19,00,16,0.00
2013,03,19,00,17,0.00
2013,03,19,00,18,0.00
2013,03,19,00,19,0.00
2013,03,19,00,20,0.00
2013,03,19,00,21,0.00
2013,03,19,00,22,0.00
2013,03,19,00,23,0.00
2013,03,19,00,24,0.00
2013,03,19,00,25,0.00
2013,03,19,00,26,0.00
2013,03,19,00,27,0.00
2013,03,19,00,28,0.00
2013,03,19,00,29,0.00
2013,03,19,00,30,0.00
2013,03,19,00,31,0.00
2013,03,19,00,32,0.00
2013,03,19,00,33,0.00
2013,03,19,00,34,0.00
2013,03,19,00,35,0.00
2013,03,19,00,36,0.00
2013,03,19,00,37,0.00
2013,03,19,00,38,0.00
2013,03,19,00,39,0.00
2013,03,19,00,40,0.00
2013,03,19,00,41,0.00
2013,03,19,00,42,0.00
2013,03,19,00,43,0.00
2013,03,19,00,44,0.00
2013,03,19,00,45,0.00
2013,03,19,00,46,0.00
2013,03,19,00,47,0.00
2013,03,19,00,48,0.00
2013,03,19,00,49,0.00
2013,03,19,00,50,0.00
2013,03,19,00,51,0.00
2013,03,19,00,52,0.00
2013,03,19,00,53,0.00
2013,03,19,00,54,0.00
2013,03,19,00,55,0.00
2013,03,19,00,56,0.00
2013,03,19,00,57,0.00
2013,03,19,00,58,0.00
2013,03,19,00,59,0.00
2013,03,19,01,00,0.00
2013,03,19,01,01,0.00
2013,03,19,01,02,0.00
2013,03,19,01,03,0.00
2013,03,19,01,04,0.00
2013,03,19,01,05,0.00
2013,03,19,01,06,0.00
2013,03,19,01,07,0.00
2013,03,19,01,08,0.00
2013,03,19,01,09,0.00
2013,03,19,01,10,0.00
2013,03,19,01,11,0.00
2013,03,19,01,12,0.00
2013,03,19,01,13,0.00
2013,03,19,01,14,0.00
2013,03,19,01,15,0.00
2013,03,19,01,16,0.00
2013,03,19,01,17,0.00
2013,03,19,01,18,0.00
2013,03,19,01,19,0.00
2013,03,19,01,20,0.00
2013,03,19,01,21,0.00
2013,03,19,01,22,0.00
2013,03,19,01,23,0.00
2013,03,19,01,24,0.00
2013,03,19,01,25,0.00
2013,03,19,01,26,0.00
2013,03,19,01,27,0.00
2013,03,19,01,28,0.00
2013,03,19,01,29,0.00
2013,03,19,01,30,0.00
2013,03,19,01,31,0.00
2013,03,19,01,32,0.00
2013,03,19,01,33,0.00
2013,03,19,01,34,0.00
2013,03,19,01,35,0.00
2013,03,19,01,36,0.00
2013,03,19,01,37,0.00
2013,03,19,01,38,0.00
2013,03,19,01,39,0.00
2013,03,19,01,40,0.00
2013,03,19,01,41,0.00
2013,03,19,01,42,0.00
2013,03,19,01,43,0.00
2013,03,19,01,44,0.00
2013,03,19,01,45,0.00
2013,03,19,01,46,0.00
2013,03,19,01,47,0.00
2013,03,19,01,48,0.00
2013,03,19,01,49,0.00
2013,03,19,01,50,0.00
2013,03,19,01,51,0.00
2013,03,19,01,52,0.00
2013,03,19,01,53,0.00
2013,03,19,01,54,0.00
2013,03,19,01,55,0.00
2013,03,19,01,56,0.00
2013,03,19,01,57,0.00
2013,03,19,01,58,0.00
2013,03,19,01,59,0.00
2013,03,19,02,00,0.00
2013,03,19,02,01,0.00
2013,03,19,02,02,0.00
2013,03,19,02,03,0.00
2013,03,19,02,04,0.00
2013,03,19,02,05,0.00
2013,03,19,02,06,0.00
2013,03,19,02,07,0.00
2013,03,19,02,08,0.00
2013,03,19,02,09,0.00
2013,03,19,02,10,0.00
2013,03,19,02,11,0.00
2013,03,19,02,12,0.00
2013,03,19,02,13,0.00
2013,03,19,02,14,0.00
2013,03,19,02,15,0.00
2013,03,19,02,16,0.00
2013,03,19,02,17,0.00
2013,03,19,02,18,0.00
2013,03,19,02,19,0.00
2013,03,19,02,20,0.00
2013,03,19,02,21,0.00
2013,03,19,02,22,0.00
2013,03,19,02,23,0.00
2013,03,19,02,24,0.00
2013,03,19,02,25,0.00
2013,03,19,02,26,0.00
2013,03,19,02,27,0.00
2013,03,19,02,28,0.00
2013,03,19,02,29,0.00
2013,03,19,02,30,0.00
2013,03,19,02,31,0.00
2013,03,19,02,32,0.00
2013,03,19,02,33,0.00
2013,03,19,02,34,0.00
2013,03,19,02,35,0.00
2013,03,19,02,36,0.00
2013,03,19,02,37,0.00
2013,03,19,02,38,0.00
2013,03,19,02,39,0.00
2013,03,19,02,40,0.00
2013,03,19,02,41,0.00
2013,03,19,02,42,0.00
2013,03,19,02,43,0.00
2013,03,19,02,44,0.00
2013,03,19,02,45,0.00
2013,03,19,02,46,0.00
2013,03,19,02,47,0.00
2013,03,19,02,48,0.00
2013,03,19,02,49,0.00
2013,03,19,02,50,0.00
2013,03,19,02,51,0.00
2013,03,19,02,52,0.00
2013,03,19,02,53,0.00
2013,03,19,02,54,0.00
2013,03,19,02,55,0.00
2013,03,19,02,56,0.00
2013,03,19,02,57,0.00
2013,03,19,02,58,0.00
2013,03,19,02,59,0.00
2013,03,19,03,00,0.00
2013,03,19,03,01,0.00
2013,03,19,03,02,0.00
2013,03,19,03,03,0.00
2013,03,19,03,04,0.00
2013,03,19,03,05,0.00
2013,03,19,03,06,0.00
2013,03,19,03,07,0.00
2013,03,19,03,08,0.00
2013,03,19,03,09,0.00
2013,03,19,03,10,0.00
2013,03,19,03,11,0.00
2013,03,19,03,12,0.00
2013,03,19,03,13,0.00
2013,03,19,03,14,0.00
2013,03,19,03,15,0.00
2013,03,19,03,16,0.00
2013,03,19,03,17,0.00
2013,03,19,03,18,0.00
2013,03,19,03,19,0.00
2013,03,19,03,20,0.00
2013,03,19,03,21,0.00
2013,03,19,03,22,0.00
2013,03,19,03,23,0.00
2013,03,19,03,24,0.00
2013,03,19,03,25,0.00
2013,03,19,03,26,0.00
2013,03,19,03,27,0.00
2013,03,19,03,28,0.00
2013,03,19,03,29,0.00
2013,03,19,03,30,0.00
2013,03,19,03,31,0.00
2013,03,19,03,32,0.00
2013,03,19,03,33,0.00
2013,03,19,03,34,0.00
2013,03,19,03,35,0.00
2013,03,19,03,36,0.00
2013,03,19,03,37,0.00
2013,03,19,03,38,0.00
2013,03,19,03,39,0.00
2013,03,19,03,40,0.00
2013,03,19,03,41,0.00
2013,03,19,03,42,0.00
2013,03,19,03,43,0.00
2013,03,19,03,44,0.00
2013,03,19,03,45,0.00
2013,03,19,03,46,0.00
2013,03,19,03,47,0.00
2013,03,19,03,48,0.00
2013,03,19,03,49,0.00
2013,03,19,03,50,0.00
2013,03,19,03,51,0.00
2013,03,19,03,52,0.00
2013,03,19,03,53,0.00
2013,03,19,03,54,0.00
2013,03,19,03,55,0.00
2013,03,19,03,56,0.00
2013,03,19,03,57,0.00
2013,03,19,03,58,0.00
2013,03,19,03,59,0.00
2013,03,19,04,00,0.00
2013,03,19,04,01,0.00
2013,03,19,04,02,0.00
2013,03,19,04,03,0.00
2013,03,19,04,04,0.00
2013,03,19,04,05,0.00
2013,03,19,04,06,0.00
2013,03,19,04,07,0.00
2013,03,19,04,08,0.00
2013,03,19,04,09,0.00
2013,03,19,04,10,0.00
2013,03,19,04,11,0.00
2013,03,19,04,12,0.00
2013,03,19,04,13,0.00
2013,03,19,04,14,0.00
2013,03,19,04,15,0.00
2013,03,19,04,16,0.00
2013,03,19,04,17,0.00
2013,03,19,04,18,0.00
2013,03,19,04,19,0.00
2013,03,19,04,20,0.00
2013,03,19,04,21,0.00
2013,03,19,04,22,0.00
2013,03,19,04,23,0.00
2013,03,19,04,24,0.00
2013,03,19,04,25,0.00
2013,03,19,04,26,0.00
2013,03,19,04,27,0.00
2013,03,19,04,28,0.00
2013,03,19,04,29,0.00
2013,03,19,04,30,0.00
2013,03,19,04,31,0.00
2013,03,19,04,32,0.00
2013,03,19,04,33,0.00
2013,03,19,04,34,0.00
2013,03,19,04,35,0.00
2013,03,19,04,36,0.00
2013,03,19,04,37,0.00
2013,03,19,04,38,0.00
2013,03,19,04,39,0.00
2013,03,19,04,40,0.00
2013,03,19,04,41,0.00
2013,03,19,04,42,0.00
2013,03,19,04,43,0.00
2013,03,19,04,44,0.00
2013,03,19,04,45,0.00
2013,03,19,04,46,0.00
2013,03,19,04,47,0.00
2013,03,19,04,48,0.00
2013,03,19,04,49,0.00
2013,03,19,04,50,0.00
2013,03,19,04,51,0.00
2013,03,19,04,52,0.00
2013,03,19,04,53,0.00
2013,03,19,04,54,0.00
2013,03,19,04,55,0.00
2013,03,19,04,56,0.00
2013,03,19,04,57,0.00
2013,03,19,04,58,0.00
2013,03,19,04,59,0.00
2013,03,19,05,00,0.00
2013,03,19,05,01,0.00
2013,03,19,05,02,0.00
2013,03,19,05,03,0.00
2013,03,19,05,04,0.00
2013,03,19,05,05,0.00
2013,03,19,05,06,0.00
2013,03,19,05,07,0.00
2013,03,19,05,08,0.00
2013,03,19,05,09,0.00
2013,03,19,05,10,0.00
2013,03,19,05,11,0.00
2013,03,19,05,12,0.00
2013,03,19,05,13,0.00
2013,03,19,05,14,0.00
2013,03,19,05,15,0.00
2013,03,19,05,16,0.00
2013,03,19,05,17,0.00
2013,03,19,05,18,0.00
2013,03,19,05,19,0.00
2013,03,19,05,20,0.00
2013,03,19,05,21,0.00
2013,03,19,05,22,0.00
2013,03,19,05,23,0.00
2013,03,19,05,24,0.00
2013,03,19,05,25,0.00
2013,03,19,05,26,0.00
2013,03,19,05,27,0.00
2013,03,19,05,28,0.00
2013,03,19,05,29,0.00
2013,03,19,05,30,0.00
2013,03,19,05,31,0.00
2013,03,19,05,32,0.00
2013,03,19,05,33,0.00
2013,03,19,05,34,0.00
2013,03,19,05,35,0.00
2013,03,19,05,36,0.00
2013,03,19,05,37,0.00
2013,03,19,05,38,0.00
2013,03,19,05,39,0.00
2013,03,19,05,40,0.00
2013,03,19,05,41,0.00
2013,03,19,05,42,0.00
2013,03,19,05,43,0.00
2013,03,19,05,44,0.00
2013,03,19,05,45,0.00
2013,03,19,05,46,0.00
2013,03,19,05,47,0.00
2013,03,19,05,48,0.00
2013,03,19,05,49,0.00
2013,03,19,05,50,0.00
2013,03,19,05,51,0.00
2013,03,19,05,52,0.00
2013,03,19,05,53,0.00
2013,03,19,05,54,0.00
2013,03,19,05,55,0.00
2013,03,19,05,56,0.00
2013,03,19,05,57,0.00
2013,03,19,05,58,0.00
2013,03,19,05,59,0.00
2013,03,19,06,00,0.00
2013,03,19,06,01,0.00
2013,03,19,06,02,0.00
2013,03,19,06,03,0.00
2013,03,19,06,04,0.00
2013,03,19,06,05,0.00
2013,03,19,06,06,0.00
2013,03,19,06,07,0.00
2013,03,19,06,08,0.00
2013,03,19,06,09,0.00
2013,03,19,06,10,0.00
2013,03,19,06,11,0.00
2013,03,19,06,12,0.00
2013,03,19,06,13,0.00
2013,03,19,06,14,0.00
2013,03,19,06,15,0.00
2013,03,19,06,16,0.00
2013,03,19,06,17,0.00
2013,03,19,06,18,0.00
2013,03,19,06,19,0.00
2013,03,19,06,20,0.00
2013,03,19,06,21,0.00
2013,03,19,06,22,0.00
2013,03,19,06,23,0.00
2013,03,19,06,24,0.00
2013,03,19,06,25,0.00
2013,03,19,06,26,0.00
2013,03,19,06,27,0.00
2013,03,19,06,28,0.00
2013,03,19,06,29,0.00
2013,03,19,06,30,0.00
2013,03,19,06,31,0.00
2013,03,19,06,32,0.00
2013,03,19,06,33,0.00
2013,03,19,06,34,0.00
2013,03,19,06,35,0.00
2013,03,19,06,36,0.00
2013,03,19,06,37,0.00
2013,03,19,06,38,0.00
2013,03,19,06,39,0.00
2013,03,19,06,40,0.00
2013,03,19,06,41,0.00
2013,03,19,06,42,0.00
2013,03,19,06,43,0.00
2013,03,19,06,44,0.00
2013,03,19,06,45,0.00
2013,03,19,06,46,0.00
2013,03,19,06,47,0.00
2013,03,19,06,48,0.00
2013,03,19,06,49,0.00
2013,03,19,06,50,0.00
2013,03,19,06,51,0.00
2013,03,19,06,52,0.00
2013,03,19,06,53,0.00
2013,03,19,06,54,0.00
2013,03,19,06,55,0.00
2013,03,19,06,56,0.00
2013,03,19,06,57,0.00
2013,03,19,06,58,0.00
2013,03,19,06,59,0.00
2013,03,19,07,00,0.00
2013,03,19,07,01,0.00
2013,03,19,07,02,0.00
2013,03,19,07,03,0.00
2013,03,19,07,04,0.00
2013,03,19,07,05,0.00
2013,03,19,07,06,0.00
2013,03,19,07,07,0.00
2013,03,19,07,08,0.00
2013,03,19,07,09,0.00
2013,03,19,07,10,0.00
2013,03,19,07,11,0.00
2013,03,19,07,12,0.00
2013,03,19,07,13,0.00
2013,03,19,07,14,0.00
2013,03,19,07,15,0.00
2013,03,19,07,16,0.00
2013,03,19,07,17,0.00
2013,03,19,07,18,0.00
2013,03,19,07,19,0.00
2013,03,19,07,20,0.00
2013,03,19,07,21,0.00
2013,03,19,07,22,0.00
2013,03,19,07,23,0.00
2013,03,19,07,24,0.00
2013,03,19,07,25,0.00
2013,03,19,07,26,0.00
2013,03,19,07,27,0.00
2013,03,19,07,28,0.00
2013,03,19,07,29,0.00
2013,03,19,07,30,0.50
2013,03,19,07,31,5.00
2013,03,19,07,32,5.00
2013,03,19,07,33,5.90
2013,03,19,07,34,7.00
2013,03,19,07,35,7.00
2013,03,19,07,36,8.40
2013,03,19,07,37,9.00
2013,03,19,07,38,10.90
2013,03,19,07,39,11.10
2013,03,19,07,40,12.00
2013,03,19,07,41,12.70
2013,03,19,07,42,14.00
2013,03,19,07,43,15.20
2013,03,19,07,44,16.00
2013,03,19,07,45,17.50
2013,03,19,07,46,18.00
2013,03,19,07,47,19.00
2013,03,19,07,48,19.40
2013,03,19,07,49,21.00
2013,03,19,07,50,21.80
2013,03,19,07,51,23.00
2013,03,19,07,52,23.00
2013,03,19,07,53,24.40
2013,03,19,07,54,25.00
2013,03,19,07,55,26.00
2013,03,19,07,56,26.30
2013,03,19,07,57,28.50
2013,03,19,07,58,30.00
2013,03,19,07,59,30.80
2013,03,19,08,00,32.50
2013,03,19,08,01,33.00
2013,03,19,08,02,34.50
2013,03,19,08,03,35.00
2013,03,19,08,04,35.20
2013,03,19,08,05,37.00
2013,03,19,08,06,37.00
2013,03,19,08,07,37.00
2013,03,19,08,08,37.00
2013,03,19,08,09,37.00
2013,03,19,08,10,37.00
2013,03,19,08,11,38.60
2013,03,19,08,12,39.00
2013,03,19,08,13,39.00
2013,03,19,08,14,39.00
2013,03,19,08,15,39.30
2013,03,19,08,16,40.80
2013,03,19,08,17,42.00
2013,03,19,08,18,42.00
2013,03,19,08,19,43.40
2013,03,19,08,20,44.00
2013,03,19,08,21,45.90
2013,03,19,08,22,46.20
2013,03,19,08,23,47.50
2013,03,19,08,24,49.00
2013,03,19,08,25,49.90
2013,03,19,08,26,52.10
2013,03,19,08,27,53.70
2013,03,19,08,28,55.50
2013,03,19,08,29,57.80
2013,03,19,08,30,60.20
2013,03,19,08,31,62.20
2013,03,19,08,32,63.00
2013,03,19,08,33,63.80
2013,03,19,08,34,66.00
2013,03,19,08,35,68.20
2013,03,19,08,36,69.70
2013,03,19,08,37,71.60
2013,03,19,08,38,73.90
2013,03,19,08,39,76.20
2013,03,19,08,40,77.50
2013,03,19,08,41,79.70
2013,03,19,08,42,81.90
2013,03,19,08,43,83.60
2013,03,19,08,44,86.70
2013,03,19,08,45,89.50
2013,03,19,08,46,92.60
2013,03,19,08,47,97.30
2013,03,19,08,48,102.60
2013,03,19,08,49,107.40
2013,03,19,08,50,114.20
2013,03,19,08,51,118.00
2013,03,19,08,52,123.00
2013,03,19,08,53,128.40
2013,03,19,08,54,135.60
2013,03,19,08,55,140.60
2013,03,19,08,56,142.20
2013,03,19,08,57,144.80
2013,03,19,08,58,150.10
2013,03,19,08,59,158.10
2013,03,19,09,00,164.80
2013,03,19,09,01,165.70
2013,03,19,09,02,165.00
2013,03,19,09,03,165.00
2013,03,19,09,04,165.00
2013,03,19,09,05,164.50
2013,03,19,09,06,161.50
2013,03,19,09,07,160.70
2013,03,19,09,08,161.10
2013,03,19,09,09,158.90
2013,03,19,09,10,156.60
2013,03,19,09,11,153.60
2013,03,19,09,12,151.20
2013,03,19,09,13,155.10
2013,03,19,09,14,156.00
2013,03,19,09,15,156.70
2013,03,19,09,16,159.60
2013,03,19,09,17,162.50
2013,03,19,09,18,164.20
2013,03,19,09,19,165.00
2013,03,19,09,20,165.00
2013,03,19,09,21,165.00
2013,03,19,09,22,163.00
2013,03,19,09,23,162.80
2013,03,19,09,24,162.40
2013,03,19,09,25,163.00
2013,03,19,09,26,164.10
2013,03,19,09,27,166.30
2013,03,19,09,28,168.50
2013,03,19,09,29,170.70
2013,03,19,09,30,173.80
2013,03,19,09,31,171.90
2013,03,19,09,32,170.40
2013,03,19,09,33,168.30
2013,03,19,09,34,166.00
2013,03,19,09,35,166.30
2013,03,19,09,36,168.30
2013,03,19,09,37,169.00
2013,03,19,09,38,170.80
2013,03,19,09,39,174.00
2013,03,19,09,40,174.80
2013,03,19,09,41,179.10
2013,03,19,09,42,181.00
2013,03,19,09,43,181.00
2013,03,19,09,44,181.00
2013,03,19,09,45,181.00
2013,03,19,09,46,182.70
2013,03,19,09,47,188.20
2013,03,19,09,48,197.40
2013,03,19,09,49,201.00
2013,03,19,09,50,205.80
2013,03,19,09,51,209.90
2013,03,19,09,52,212.70
2013,03,19,09,53,216.60
2013,03,19,09,54,222.00
2013,03,19,09,55,223.00
2013,03,19,09,56,227.20
2013,03,19,09,57,229.20
2013,03,19,09,58,230.50
2013,03,19,09,59,232.80
2013,03,19,10,00,234.00
2013,03,19,10,01,231.00
2013,03,19,10,02,227.50
2013,03,19,10,03,225.30
2013,03,19,10,04,224.90
2013,03,19,10,05,223.00
2013,03,19,10,06,222.50
2013,03,19,10,07,219.90
2013,03,19,10,08,218.90
2013,03,19,10,09,221.60
2013,03,19,10,10,227.10
2013,03,19,10,11,231.30
2013,03,19,10,12,232.00
2013,03,19,10,13,235.20
2013,03,19,10,14,229.80
2013,03,19,10,15,228.50
2013,03,19,10,16,227.00
2013,03,19,10,17,228.40
2013,03,19,10,18,231.20
2013,03,19,10,19,230.60
2013,03,19,10,20,230.00
2013,03,19,10,21,229.10
2013,03,19,10,22,229.00
2013,03,19,10,23,229.00
2013,03,19,10,24,229.00
2013,03,19,10,25,229.00
2013,03,19,10,26,229.60
2013,03,19,10,27,231.30
2013,03,19,10,28,230.60
2013,03,19,10,29,230.00
2013,03,19,10,30,229.90
2013,03,19,10,31,229.00
2013,03,19,10,32,229.00
2013,03,19,10,33,229.00
2013,03,19,10,34,229.50
2013,03,19,10,35,230.00
2013,03,19,10,36,230.00
2013,03,19,10,37,226.20
2013,03,19,10,38,223.20
2013,03,19,10,39,221.00
2013,03,19,10,40,220.80
2013,03,19,10,41,220.00
2013,03,19,10,42,220.00
2013,03,19,10,43,220.50
2013,03,19,10,44,221.00
2013,03,19,10,45,220.20
2013,03,19,10,46,220.00
2013,03,19,10,47,216.10
2013,03,19,10,48,213.90
2013,03,19,10,49,212.50
2013,03,19,10,50,211.00
2013,03,19,10,51,211.90
2013,03,19,10,52,213.00
2013,03,19,10,53,214.90
2013,03,19,10,54,217.60
2013,03,19,10,55,220.70
2013,03,19,10,56,225.40
2013,03,19,10,57,229.20
2013,03,19,10,58,231.80
2013,03,19,10,59,237.20
2013,03,19,11,00,239.00
2013,03,19,11,01,240.20
2013,03,19,11,02,241.00
2013,03,19,11,03,239.40
2013,03,19,11,04,239.00
2013,03,19,11,05,235.80
2013,03,19,11,06,233.60
2013,03,19,11,07,231.30
2013,03,19,11,08,229.60
2013,03,19,11,09,227.90
2013,03,19,11,10,227.00
2013,03,19,11,11,227.00
2013,03,19,11,12,225.30
2013,03,19,11,13,225.00
2013,03,19,11,14,225.30
2013,03,19,11,15,227.00
2013,03,19,11,16,227.80
2013,03,19,11,17,230.50
2013,03,19,11,18,233.90
2013,03,19,11,19,239.50
2013,03,19,11,20,245.00
2013,03,19,11,21,250.50
2013,03,19,11,22,260.50
2013,03,19,11,23,266.20
2013,03,19,11,24,273.40
2013,03,19,11,25,282.40
2013,03,19,11,26,291.00
2013,03,19,11,27,300.20
2013,03,19,11,28,308.80
2013,03,19,11,29,320.40
2013,03,19,11,30,327.20
2013,03,19,11,31,340.50
2013,03,19,11,32,333.50
2013,03,19,11,33,317.00
2013,03,19,11,34,307.90
2013,03,19,11,35,301.20
2013,03,19,11,36,296.30
2013,03,19,11,37,294.20
2013,03,19,11,38,290.40
2013,03,19,11,39,287.00
2013,03,19,11,40,284.10
2013,03,19,11,41,277.60
2013,03,19,11,42,273.20
2013,03,19,11,43,275.30
2013,03,19,11,44,281.00
2013,03,19,11,45,286.50
2013,03,19,11,46,291.40
2013,03,19,11,47,294.70
2013,03,19,11,48,295.00
2013,03,19,11,49,294.40
2013,03,19,11,50,291.30
2013,03,19,11,51,289.20
2013,03,19,11,52,285.20
2013,03,19,11,53,281.70
2013,03,19,11,54,278.80
2013,03,19,11,55,276.30
2013,03,19,11,56,276.10
2013,03,19,11,57,278.10
2013,03,19,11,58,280.00
2013,03,19,11,59,283.80
2013,03,19,12,00,286.00
2013,03,19,12,01,287.60
2013,03,19,12,02,289.40
2013,03,19,12,03,291.60
2013,03,19,12,04,292.00
2013,03,19,12,05,290.00
2013,03,19,12,06,289.60
2013,03,19,12,07,288.00
2013,03,19,12,08,288.80
2013,03,19,12,09,289.00
2013,03,19,12,10,286.20
2013,03,19,12,11,282.20
2013,03,19,12,12,276.80
2013,03,19,12,13,272.00
2013,03,19,12,14,268.40
2013,03,19,12,15,264.80
2013,03,19,12,16,262.70
2013,03,19,12,17,260.00
2013,03,19,12,18,258.90
2013,03,19,12,19,259.30
2013,03,19,12,20,263.20
2013,03,19,12,21,266.60
2013,03,19,12,22,271.10
2013,03,19,12,23,275.00
2013,03,19,12,24,281.40
2013,03,19,12,25,289.00
2013,03,19,12,26,293.50
2013,03,19,12,27,296.20
2013,03,19,12,28,297.00
2013,03,19,12,29,300.20
2013,03,19,12,30,303.90
2013,03,19,12,31,308.00
2013,03,19,12,32,307.60
2013,03,19,12,33,304.80
2013,03,19,12,34,302.00
2013,03,19,12,35,303.10
2013,03,19,12,36,302.70
2013,03,19,12,37,303.50
2013,03,19,12,38,305.70
2013,03,19,12,39,308.90
2013,03,19,12,40,308.80
2013,03,19,12,41,308.00
2013,03,19,12,42,308.00
2013,03,19,12,43,307.00
2013,03,19,12,44,304.80
2013,03,19,12,45,302.60
2013,03,19,12,46,302.00
2013,03,19,12,47,302.00
2013,03,19,12,48,304.20
2013,03,19,12,49,307.00
2013,03,19,12,50,312.20
2013,03,19,12,51,315.00
2013,03,19,12,52,316.50
2013,03,19,12,53,319.20
2013,03,19,12,54,322.10
2013,03,19,12,55,324.60
2013,03,19,12,56,333.80
2013,03,19,12,57,339.20
2013,03,19,12,58,341.00
2013,03,19,12,59,340.30
2013,03,19,13,00,335.90
2013,03,19,13,01,327.00
2013,03,19,13,02,316.20
2013,03,19,13,03,307.80
2013,03,19,13,04,300.00
2013,03,19,13,05,293.90
2013,03,19,13,06,289.70
2013,03,19,13,07,287.10
2013,03,19,13,08,284.20
2013,03,19,13,09,284.00
2013,03,19,13,10,286.90
2013,03,19,13,11,289.30
2013,03,19,13,12,290.00
2013,03,19,13,13,291.80
2013,03,19,13,14,286.40
2013,03,19,13,15,281.80
2013,03,19,13,16,274.90
2013,03,19,13,17,265.90
2013,03,19,13,18,257.00
2013,03,19,13,19,248.40
2013,03,19,13,20,240.80
2013,03,19,13,21,234.80
2013,03,19,13,22,232.10
2013,03,19,13,23,232.00
2013,03,19,13,24,233.00
2013,03,19,13,25,237.10
2013,03,19,13,26,242.50
2013,03,19,13,27,248.90
2013,03,19,13,28,255.20
2013,03,19,13,29,257.80
2013,03,19,13,30,258.00
2013,03,19,13,31,254.50
2013,03,19,13,32,248.20
2013,03,19,13,33,238.30
2013,03,19,13,34,228.40
2013,03,19,13,35,219.50
2013,03,19,13,36,211.80
2013,03,19,13,37,203.80
2013,03,19,13,38,197.70
2013,03,19,13,39,192.90
2013,03,19,13,40,188.00
2013,03,19,13,41,186.20
2013,03,19,13,42,179.90
2013,03,19,13,43,176.20
2013,03,19,13,44,174.00
2013,03,19,13,45,174.00
2013,03,19,13,46,177.00
2013,03,19,13,47,180.70
2013,03,19,13,48,185.10
2013,03,19,13,49,186.40
2013,03,19,13,50,189.20
2013,03,19,13,51,193.20
2013,03,19,13,52,196.00
2013,03,19,13,53,197.00
2013,03,19,13,54,197.00
2013,03,19,13,55,193.80
2013,03,19,13,56,190.10
2013,03,19,13,57,186.20
2013,03,19,13,58,189.80
2013,03,19,13,59,195.00
2013,03,19,14,00,200.40
2013,03,19,14,01,209.20
2013,03,19,14,02,211.00
2013,03,19,14,03,209.50
2013,03,19,14,04,207.30
2013,03,19,14,05,206.10
2013,03,19,14,06,205.40
2013,03,19,14,07,202.00
2013,03,19,14,08,202.00
2013,03,19,14,09,202.00
2013,03,19,14,10,203.20
2013,03,19,14,11,205.40
2013,03,19,14,12,206.80
2013,03,19,14,13,207.00
2013,03,19,14,14,207.00
2013,03,19,14,15,207.00
2013,03,19,14,16,207.60
2013,03,19,14,17,210.60
2013,03,19,14,18,214.60
2013,03,19,14,19,217.30
2013,03,19,14,20,218.00
2013,03,19,14,21,216.30
2013,03,19,14,22,213.00
2013,03,19,14,23,208.70
2013,03,19,14,24,206.80
2013,03,19,14,25,204.60
2013,03,19,14,26,199.90
2013,03,19,14,27,194.20
2013,03,19,14,28,188.10
2013,03,19,14,29,183.80
2013,03,19,14,30,181.30
2013,03,19,14,31,178.80
2013,03,19,14,32,175.00
2013,03,19,14,33,168.60
2013,03,19,14,34,160.20
2013,03,19,14,35,154.50
2013,03,19,14,36,153.00
2013,03,19,14,37,153.00
2013,03,19,14,38,151.40
2013,03,19,14,39,148.90
2013,03,19,14,40,145.70
2013,03,19,14,41,143.20
2013,03,19,14,42,140.30
2013,03,19,14,43,139.00
2013,03,19,14,44,140.60
2013,03,19,14,45,144.50
2013,03,19,14,46,148.20
2013,03,19,14,47,152.40
2013,03,19,14,48,154.90
2013,03,19,14,49,155.60
2013,03,19,14,50,151.80
2013,03,19,14,51,145.90
2013,03,19,14,52,141.50
2013,03,19,14,53,138.60
2013,03,19,14,54,132.10
2013,03,19,14,55,124.40
2013,03,19,14,56,118.50
2013,03,19,14,57,116.20
2013,03,19,14,58,118.60
2013,03,19,14,59,122.40
2013,03,19,15,00,125.00
2013,03,19,15,01,124.00
2013,03,19,15,02,124.30
2013,03,19,15,03,128.80
2013,03,19,15,04,139.40
2013,03,19,15,05,154.90
2013,03,19,15,06,168.70
2013,03,19,15,07,180.50
2013,03,19,15,08,191.90
2013,03,19,15,09,203.50
2013,03,19,15,10,213.90
2013,03,19,15,11,225.80
2013,03,19,15,12,240.50
2013,03,19,15,13,263.50
2013,03,19,15,14,303.80
2013,03,19,15,15,353.00
2013,03,19,15,16,389.10
2013,03,19,15,17,402.40
2013,03,19,15,18,384.00
2013,03,19,15,19,360.40
2013,03,19,15,20,337.30
2013,03,19,15,21,315.90
2013,03,19,15,22,300.40
2013,03,19,15,23,288.70
2013,03,19,15,24,279.20
2013,03,19,15,25,267.80
2013,03,19,15,26,253.70
2013,03,19,15,27,236.60
2013,03,19,15,28,219.20
2013,03,19,15,29,204.90
2013,03,19,15,30,193.50
2013,03,19,15,31,182.50
2013,03,19,15,32,177.40
2013,03,19,15,33,174.50
2013,03,19,15,34,177.20
2013,03,19,15,35,180.80
2013,03,19,15,36,184.20
2013,03,19,15,37,185.00
2013,03,19,15,38,181.80
2013,03,19,15,39,179.20
2013,03,19,15,40,177.70
2013,03,19,15,41,175.60
2013,03,19,15,42,173.40
2013,03,19,15,43,172.00
2013,03,19,15,44,172.00
2013,03,19,15,45,172.00
2013,03,19,15,46,169.80
2013,03,19,15,47,163.90
2013,03,19,15,48,157.90
2013,03,19,15,49,150.20
2013,03,19,15,50,144.80
2013,03,19,15,51,138.90
2013,03,19,15,52,132.80
2013,03,19,15,53,130.00
2013,03,19,15,54,126.70
2013,03,19,15,55,121.80
2013,03,19,15,56,118.30
2013,03,19,15,57,115.80
2013,03,19,15,58,113.80
2013,03,19,15,59,113.00
2013,03,19,16,00,113.00
2013,03,19,16,01,113.00
2013,03,19,16,02,113.00
2013,03,19,16,03,113.80
2013,03,19,16,04,115.70
2013,03,19,16,05,114.10
2013,03,19,16,06,113.80
2013,03,19,16,07,113.00
2013,03,19,16,08,113.00
2013,03,19,16,09,113.00
2013,03,19,16,10,111.90
2013,03,19,16,11,111.00
2013,03,19,16,12,105.40
2013,03,19,16,13,102.20
2013,03,19,16,14,97.90
2013,03,19,16,15,95.90
2013,03,19,16,16,90.70
2013,03,19,16,17,90.00
2013,03,19,16,18,90.00
2013,03,19,16,19,90.00
2013,03,19,16,20,90.00
2013,03,19,16,21,90.80
2013,03,19,16,22,91.00
2013,03,19,16,23,90.90
2013,03,19,16,24,90.00
2013,03,19,16,25,90.30
2013,03,19,16,26,91.80
2013,03,19,16,27,95.10
2013,03,19,16,28,97.60
2013,03,19,16,29,101.00
2013,03,19,16,30,102.00
2013,03,19,16,31,99.70
2013,03,19,16,32,96.70
2013,03,19,16,33,95.00
2013,03,19,16,34,93.10
2013,03,19,16,35,90.00
2013,03,19,16,36,90.00
2013,03,19,16,37,90.00
2013,03,19,16,38,90.80
2013,03,19,16,39,91.00
2013,03,19,16,40,91.00
2013,03,19,16,41,91.40
2013,03,19,16,42,93.00
2013,03,19,16,43,93.00
2013,03,19,16,44,93.00
2013,03,19,16,45,93.00
2013,03,19,16,46,90.80
2013,03,19,16,47,84.90
2013,03,19,16,48,81.20
2013,03,19,16,49,77.00
2013,03,19,16,50,76.80
2013,03,19,16,51,75.30
2013,03,19,16,52,74.00
2013,03,19,16,53,75.10
2013,03,19,16,54,77.90
2013,03,19,16,55,82.80
2013,03,19,16,56,89.10
2013,03,19,16,57,92.80
2013,03,19,16,58,92.40
2013,03,19,16,59,88.20
2013,03,19,17,00,81.60
2013,03,19,17,01,74.50
2013,03,19,17,02,70.80
2013,03,19,17,03,67.90
2013,03,19,17,04,63.60
2013,03,19,17,05,62.10
2013,03,19,17,06,59.80
2013,03,19,17,07,57.20
2013,03,19,17,08,53.10
2013,03,19,17,09,49.40
2013,03,19,17,10,45.50
2013,03,19,17,11,42.70
2013,03,19,17,12,42.00
2013,03,19,17,13,40.30
2013,03,19,17,14,40.00
2013,03,19,17,15,40.00
2013,03,19,17,16,40.50
2013,03,19,17,17,42.00
2013,03,19,17,18,42.00
2013,03,19,17,19,42.00